Location: Strada George Coșbuc
(47.6577°N, 23.5639°E)
Time: 12:59:52
(UTC+03:00)

ISS - Pass Details

Date: 01 November 2017
Orbit: 401 x 408 km, 51.6° (Epoch: 23 October)

Event Time Altitude Azimuth Distance (km) Brightness Sun altitude
Exits shadow 05:13:10 14° 180° (S) 1,244 -1.4 -20.1°
Maximum altitude 05:14:57 20° 139° (SE) 985 -1.4 -19.8°
Drops below altitude 10° 05:17:26 10° 89° (E) 1,452 0.2 -19.3°
Sets 05:19:50 0° 72° (ENE) 2,314 1.4 -18.9°
